Location: Burzi?i
(45.0869°N, 16.0577°E)
Time: 04:19:12
(UTC+00:00)

Cosmos 2278 - Pass Details

Date: 29 October 2020
Orbit: 841 x 851 km, 71.1° (Epoch: 01 December)

Event Time Altitude Azimuth Distance (km) Brightness Sun altitude
Rises 18:02:31 0° 204° (SSW) 3,398 7.1 -24.3°
Reaches altitude 10° 18:04:57 10° 205° (SSW) 2,465 6.3 -24.7°
Maximum altitude 18:10:38 88° 295° (WNW) 853 3.6 -25.7°
Enters shadow 18:12:36 43° 24° (NNE) 1,174 4.2 -26.1°
